Notices

What's New in latest Release from April 7th, 2021:

- Updated Glossary, including Speed of Maximum Gust, and Total Hourly Precipitation

- Updated national and regional climate services offices contacts and prices information

- Addition of station inventory lists for 1981-2010, 1971-2000, and 1961-1990 Normals.

If you haven't already, please take our survey and provide feedback about our website: https://eccc.sondage-survey.ca/f/LanguageSelection.aspx?s=442ca660-fcf1-47c0-95a9-59707d6fd709

Hourly Data Report for March 14, 2021

MIRAMICHI RCS
NEW BRUNSWICK
Current Station Operator: ECCC - MSC

47°00'34.000" N
65°27'54.000" W
33.00 m
8100989
71744
ACQ

Download Data

Hourly Data (March 2021)
Hourly Data Report for March 14, 2021
TIME
LST
Temp Definition
°C
Dew Point Definition
°C
Rel Hum Definition
%
Precip. Amount Definition
mm

Wind Dir Definition
10's deg

Wind Spd Definition
km/h
Visibility Definition
km
Stn Press Definition
kPa
Hmdx Definition


Wind Chill Definition


Weather Definition


00:00 -5.6 -15.5 46 LegendMM 30 16   100.36   -12 LegendNANA
01:00 -6.4 -15.0 51 LegendMM 29 19   100.33   -13 LegendNANA
02:00 -6.6 -15.4 50 LegendMM 31 14   100.29   -12 LegendNANA
03:00 -7.1 -15.1 53 LegendMM 30 13   100.25   -13 LegendNANA
04:00 -7.5 -15.3 54 LegendMM 30 13   100.19   -13 LegendNANA
05:00 -7.9 -15.3 56 LegendMM 30 14   100.16   -14 LegendNANA
06:00 -8.4 -15.7 55 LegendMM 30 13   100.18   -14 LegendNANA
07:00 -9.0 -15.9 57 LegendMM 29 14   100.18   -15 LegendNANA
08:00 -8.8 -15.9 56 LegendMM 30 14   100.18   -15 LegendNANA
09:00 -8.2 -16.4 52 LegendMM 31 16   100.18   -15 LegendNANA
10:00 -7.5 -16.7 48 LegendMM 31 15   100.17   -14 LegendNANA
11:00 -6.4 -16.4 45 LegendMM 31 15   100.13   -12 LegendNANA
12:00 -5.2 -16.1 42 LegendMM 30 14   100.06   -11 LegendNANA
13:00 -4.3 -16.5 38 LegendMM 31 17   100.00   -10 LegendNANA
14:00 -3.8 -16.8 36 LegendMM 31 15   99.97   -9 LegendNANA
15:00 -4.0 -16.4 38 LegendMM 33 14   100.00   -9 LegendNANA
16:00 -4.4 -16.4 39 LegendMM 32 15   100.05   -10 LegendNANA
17:00 -5.0 -17.3 38 LegendMM 33 14   100.09   -10 LegendNANA
18:00 -6.3 -17.7 40 LegendMM 32 15   100.18   -12 LegendNANA
19:00 -7.9 -18.1 44 LegendMM 33 12   100.29   -13 LegendNANA
20:00 -9.1 -19.4 43 LegendMM 32 14   100.36   -15 LegendNANA
21:00 -9.9 -18.8 48 LegendMM 31 12   100.39   -16 LegendNANA
22:00 -11.0 -18.5 54 LegendMM 29 12   100.40   -17 LegendNANA
23:00 -11.8 -18.2 59 LegendMM 29 13   100.40   -18 LegendNANA

Notes on Data Quality.

Legend

  • E = Estimated
  • M = Missing
  • NA = Not Available*
  • [empty] = Indicates an unobserved value
Date modified: